FW8325 Weather Reports


Display with metric or nautical units.
time (UTC)temp
F
wind
direction
speed
MPH
gust
MPH
rain 1hr
in
rain 24hr
in
rain mn
in
humidity
%
barometer
mb
20240612192626 67 64 0.0 0.0 0.00 0.00 0.00 66 1018.0
20240612191619 67 81 0.0 0.0 0.00 0.00 0.00 67 1018.1
20240612190619 67 81 0.0 0.0 0.00 0.00 0.00 66 1018.1
20240612185620 67 42 0.0 0.0 0.00 0.00 0.00 65 1018.2
20240612184621 67 49 0.0 4.0 0.00 0.00 0.00 64 1018.2
20240612183642 67 24 0.0 0.0 0.00 0.00 0.00 66 1018.2
20240612182627 67 24 0.0 0.0 0.00 0.00 0.00 65 1018.3
20240612181629 67 34 0.0 0.0 0.00 0.00 0.00 68 1018.4
20240612180625 67 40 0.0 0.0 0.00 0.00 0.00 67 1018.5
20240612175633 66 35 0.0 0.0 0.00 0.00 0.00 67 1018.4
20240612174632 65 48 0.0 0.0 0.00 0.00 0.00 70 1018.4
20240612173652 63 63 0.0 6.0 0.00 0.00 0.00 73 1018.4
20240612172651 63 58 6.0 7.0 0.00 0.00 0.00 71 1018.4
20240612171631 65 57 6.0 9.0 0.00 0.00 0.00 68 1018.4
20240612170632 66 34 6.0 9.0 0.00 0.00 0.00 66 1018.4
20240612165615 66 31 6.0 8.0 0.00 0.00 0.00 66 1018.4
20240612164637 65 36 0.0 0.0 0.00 0.00 0.00 65 1018.5
20240612163616 65 31 0.0 0.0 0.00 0.00 0.00 65 1018.6
20240612162621 65 68 0.0 0.0 0.00 0.00 0.00 64 1018.7
20240612161621 63 106 0.0 0.0 0.00 0.00 0.00 68 1018.7
20240612160622 62 106 0.0 0.0 0.00 0.00 0.00 68 1018.8
20240612155647 62 106 0.0 0.0 0.00 0.00 0.00 70 1018.8
20240612154626 61 106 0.0 0.0 0.00 0.00 0.00 70 1018.8
20240612153630 61 105 0.0 0.0 0.00 0.00 0.00 68 1018.9
20240612152630 61 118 0.0 1.0 0.00 0.00 0.00 69 1018.8
20240612151631 61 118 0.0 0.0 0.00 0.00 0.00 69 1018.8
20240612150625 61 117 0.0 3.0 0.00 0.00 0.00 69 1018.9
20240612145626 62 94 0.0 0.0 0.00 0.00 0.00 66 1018.9
20240612144630 62 94 0.0 0.0 0.00 0.00 0.00 67 1018.8
20240612143631 61 94 0.0 0.0 0.00 0.00 0.00 68 1018.8
20240612142652 60 94 1.0 4.0 0.00 0.00 0.00 71 1018.8
20240612141651 60 101 3.0 7.0 0.00 0.00 0.00 72 1018.7
20240612140651 60 112 4.0 7.0 0.00 0.00 0.00 71 1018.7
20240612135631 62 128 0.0 0.0 0.00 0.00 0.00 67 1018.7
20240612134637 63 171 0.0 0.0 0.00 0.00 0.00 64 1018.7
20240612133617 63 171 0.0 0.0 0.00 0.00 0.00 65 1018.6
20240612132638 61 171 0.0 0.0 0.00 0.00 0.00 68 1018.6
20240612131617 59 171 0.0 0.0 0.00 0.00 0.00 69 1018.5
20240612130618 58 171 0.0 0.0 0.00 0.00 0.00 70 1018.4
20240612125626 57 170 0.0 1.0 0.00 0.00 0.00 72 1018.3
20240612124626 55 240 0.0 1.0 0.00 0.00 0.00 74 1018.2
20240612123628 54 272 0.0 7.0 0.00 0.00 0.00 71 1018.1
20240612122630 53 272 1.0 6.0 0.00 0.00 0.00 71 1018.0
20240612121616 53 276 0.0 0.0 0.00 0.00 0.00 72 1018.0
20240612120631 53 277 0.0 0.0 0.00 0.00 0.00 72 1017.9
20240612115633 53 277 0.0 6.0 0.00 0.00 0.00 70 1017.8
20240612114632 53 281 1.0 4.0 0.00 0.00 0.00 71 1017.7
20240612113635 53 269 1.0 3.0 0.00 0.00 0.00 71 1017.7
20240612112620 53 279 0.0 0.0 0.00 0.00 0.00 70 1017.7
20240612111619 53 219 0.0 0.0 0.00 0.00 0.00 73 1017.6
20240612110639 53 219 0.0 0.0 0.00 0.00 0.00 75 1017.5
20240612105621 53 231 0.0 0.0 0.00 0.00 0.00 75 1017.5
20240612104622 54 237 0.0 0.0 0.00 0.00 0.00 68 1017.5
20240612103626 54 231 0.0 0.0 0.00 0.00 0.00 70 1017.5
20240612102627 54 276 0.0 0.0 0.00 0.00 0.00 67 1017.6
20240612101625 55 244 0.0 0.0 0.00 0.00 0.00 70 1017.5
20240612100647 55 236 0.0 0.0 0.00 0.00 0.00 68 1017.5
20240612095628 55 274 0.0 6.0 0.00 0.00 0.00 63 1017.4
20240612094635 56 272 0.0 6.0 0.00 0.00 0.00 62 1017.4
20240612093634 57 284 0.0 0.0 0.00 0.00 0.00 64 1017.3
20240612092616 58 300 0.0 0.0 0.00 0.00 0.00 66 1017.3
20240612091616 60 313 0.0 0.0 0.00 0.00 0.00 66 1017.2
20240612090655 60 323 0.0 0.0 0.00 0.00 0.00 65 1017.3
20240612085642 60 304 0.0 5.0 0.00 0.00 0.00 65 1017.1
20240612084621 60 328 3.0 6.0 0.00 0.00 0.00 64 1017.0
20240612083624 61 332 2.0 9.0 0.00 0.00 0.00 62 1017.1
20240612082624 60 355 2.0 6.0 0.00 0.00 0.00 62 1017.1
20240612081646 59 171 0.0 0.0 0.00 0.00 0.00 56 1016.9
20240612080630 60 291 0.0 0.0 0.00 0.00 0.00 59 1016.9
20240612075633 60 228 0.0 0.0 0.00 0.00 0.00 56 1016.9
20240612074633 59 191 0.0 0.0 0.00 0.00 0.00 64 1016.9
20240612073634 61 155 0.0 1.0 0.00 0.00 0.00 63 1016.9
20240612072618 61 153 0.0 0.0 0.00 0.00 0.00 63 1017.0
20240612071618 60 157 0.0 1.0 0.00 0.00 0.00 63 1016.9
20240612070620 61 184 0.0 0.0 0.00 0.00 0.00 64 1016.9
20240612065623 61 172 0.0 0.0 0.00 0.00 0.00 59 1016.9
20240612064624 61 172 0.0 0.0 0.00 0.00 0.00 59 1017.1
20240612063628 62 171 0.0 0.0 0.00 0.00 0.00 64 1017.1
20240612062649 63 171 0.0 0.0 0.00 0.00 0.00 59 1017.2
20240612061631 62 111 0.0 0.0 0.00 0.00 0.00 67 1017.2
20240612060625 62 151 0.0 0.0 0.00 0.00 0.00 56 1017.2
20240612055646 63 151 0.0 0.0 0.00 0.00 0.00 54 1017.2
20240612054628 63 151 0.0 0.0 0.00 0.00 0.00 54 1017.2
20240612053632 64 151 0.0 7.0 0.00 0.00 0.00 54 1017.1
20240612052632 64 139 3.0 5.0 0.00 0.00 0.00 53 1017.1
20240612051633 65 151 0.0 0.0 0.00 0.00 0.00 53 1017.2
20240612050634 65 165 0.0 0.0 0.00 0.00 0.00 51 1017.2
20240612045620 65 151 0.0 0.0 0.00 0.00 0.00 56 1017.3
20240612044633 66 151 0.0 0.0 0.00 0.00 0.00 54 1017.3
20240612043653 67 143 0.0 1.0 0.00 0.00 0.00 53 1017.3
20240612042635 67 110 2.0 7.0 0.00 0.00 0.00 58 1017.2
20240612041635 68 141 0.0 0.0 0.00 0.00 0.00 42 1017.1
20240612040635 68 274 1.0 14.0 0.00 0.00 0.00 39 1017.1
20240612035618 67 276 1.0 9.0 0.00 0.00 0.00 42 1016.9
20240612034623 65 271 0.0 8.0 0.00 0.00 0.00 45 1016.9
20240612033624 65 279 2.0 7.0 0.00 0.00 0.00 46 1016.8
20240612032624 65 285 0.0 0.0 0.00 0.00 0.00 47 1016.7
20240612031623 65 281 0.0 7.0 0.00 0.00 0.00 48 1016.7
20240612030628 66 279 0.0 4.0 0.00 0.00 0.00 48 1016.6
20240612024630 67 277 0.0 0.0 0.00 0.00 0.00 46 1016.7
20240612023630 70 286 0.0 0.0 0.00 0.00 0.00 45 1016.7
20240612022630 73 271 0.0 0.0 0.00 0.00 0.00 43 1016.6
20240612021634 74 232 0.0 0.0 0.00 0.00 0.00 40 1016.6
20240612020616 75 221 0.0 2.0 0.00 0.00 0.00 36 1016.5
20240612015618 75 235 1.0 8.0 0.00 0.00 0.00 36 1016.5
20240612014618 76 217 0.0 0.0 0.00 0.00 0.00 36 1016.6
20240612013618 76 223 1.0 9.0 0.00 0.00 0.00 34 1016.6
20240612012645 76 228 2.0 16.0 0.00 0.00 0.00 34 1016.6
20240612011623 76 228 0.0 11.0 0.00 0.00 0.00 34 1016.7
20240612010622 76 244 6.0 20.0 0.00 0.00 0.00 32 1016.7
20240612005624 77 231 4.0 16.0 0.00 0.00 0.00 30 1016.8
20240612004624 77 227 12.0 14.0 0.00 0.00 0.00 33 1016.9
20240612003628 78 227 5.0 11.0 0.00 0.00 0.00 33 1017.0
20240612002630 77 276 0.0 16.0 0.00 0.00 0.00 30 1017.1
20240612001630 77 243 3.0 17.0 0.00 0.00 0.00 30 1017.2
20240612000627 77 223 11.0 20.0 0.00 0.00 0.00 33 1017.2
20240611235628 78 238 7.0 19.0 0.00 0.00 0.00 32 1017.3
20240611234633 77 238 8.0 14.0 0.00 0.00 0.00 30 1017.3
20240611233634 77 251 9.0 16.0 0.00 0.00 0.00 31 1017.5
20240611232635 74 263 0.0 6.0 0.00 0.00 0.00 33 1017.6
20240611231616 72 92 0.0 12.0 0.00 0.00 0.00 42 1017.7
20240611230620 72 5 0.0 11.0 0.00 0.00 0.00 43 1017.7
20240611225624 74 57 0.0 9.0 0.00 0.00 0.00 39 1017.7
20240611224626 72 190 5.0 15.0 0.00 0.00 0.00 33 1017.8
20240611223627 68 115 0.0 13.0 0.00 0.00 0.00 55 1017.9
20240611222628 69 65 13.0 14.0 0.00 0.00 0.00 60 1017.9
20240611221651 70 65 0.0 1.0 0.00 0.00 0.00 54 1018.0
20240611220635 69 34 0.0 12.0 0.00 0.00 0.00 63 1018.1
20240611215619 69 68 0.0 12.0 0.00 0.00 0.00 61 1018.2
20240611214619 69 84 0.0 15.0 0.00 0.00 0.00 55 1018.3
20240611213620 67 65 5.0 13.0 0.00 0.00 0.00 60 1018.3
20240611212624 68 82 0.0 15.0 0.00 0.00 0.00 59 1018.3
20240611211624 69 79 9.0 15.0 0.00 0.00 0.00 53 1018.4
20240611210626 69 76 12.0 15.0 0.00 0.00 0.00 44 1018.4
20240611205629 67 82 6.0 14.0 0.00 0.00 0.00 61 1018.4
20240611204633 67 73 13.0 14.0 0.00 0.00 0.00 57 1018.5
20240611203634 67 79 5.0 12.0 0.00 0.00 0.00 59 1018.6
20240611202635 67 74 7.0 14.0 0.00 0.00 0.00 53 1018.8
20240611201635 67 59 7.0 11.0 0.00 0.00 0.00 61 1018.8
20240611200615 65 78 0.0 10.0 0.00 0.00 0.00 68 1019.0
20240611195622 65 73 10.0 12.0 0.00 0.00 0.00 71 1019.0
20240611194623 65 83 10.0 13.0 0.00 0.00 0.00 63 1019.0
20240611193624 66 50 0.0 11.0 0.00 0.00 0.00 53 1019.1